This demonstration page uses our WeatherBlox Daily Observations layout. Learn more.

Left ArrowRight Arrow

36.17497, -115.13722

Hourly Observations for November 27, 2020

Temp ( °F °C ) Dew Point ( °F °C ) Humidity (%) Winds ( mph kmh ) Pressure ( in mb ) Visibility ( mi km ) Precip ( " mm )
12:53 am 00:53 Clear 48 8.9 11 -11.7 22 22 NNW 16 26 30.25 1025 10 16 0.00 0.00
1:53 am 01:53 Clear 46 7.8 11 -11.7 24 24 NNW 18 30 30.26 1025 10 16 0.00 0.00
2:53 am 02:53 Clear with Light Rain 47 8.3 11 -11.7 23 23 NNW 23 37 30.25 1024 10 16 0.00 0.00
3:53 am 03:53 Clear 47 8.3 11 -11.7 23 23 NNW 17 28 30.27 1025 10 16 0.00 0.00
4:53 am 04:53 Clear 46 7.8 11 -11.7 24 24 NNW 20 31 30.27 1025 10 16 0.00 0.00
5:53 am 05:53 Clear 45 7.2 11 -11.7 25 25 NNW 21 33 30.29 1026 10 16 0.00 0.00
6:53 am 06:53 Sunny with Light Rain 46 7.8 11 -11.7 24 24 NNW 22 35 30.32 1027 10 16 0.00 0.00
7:53 am 07:53 Sunny 48 8.9 11 -11.7 22 22 NNW 21 33 30.34 1027 10 16 0.00 0.00
8:53 am 08:53 Sunny 50 10 11 -11.7 21 21 NNW 18 30 30.36 1028 10 16 0.00 0.00
9:53 am 09:53 Sunny 53 11.7 11 -11.7 18 18 NNW 16 26 30.36 1028 10 16 0.00 0.00
10:53 am 10:53 Sunny 55 12.8 9 -12.8 16 16 NW 15 24 30.34 1027 10 16 0.00 0.00
11:53 am 11:53 Sunny 57 13.9 8 -13.3 14 14 NNW 14 22 30.30 1026 10 16 0.00 0.00
12:53 pm 12:53 Sunny 59 15 8 -13.3 13 13 NW 15 24 30.27 1025 10 16 0.00 0.00
1:53 pm 13:53 Sunny 60 15.6 8 -13.3 12 12 NNW 13 20 30.25 1024 10 16 0.00 0.00
2:53 pm 14:53 Sunny 61 16.1 9 -12.8 13 13 NNW 10 17 30.25 1024 10 16 0.00 0.00
3:53 pm 15:53 Sunny 60 15.6 10 -12.2 14 14 NNW 7 11 30.25 1024 10 16 0.00 0.00
4:53 pm 16:53 Clear 57 13.9 11 -11.7 16 16 NNW 8 13 30.27 1025 10 16 0.00 0.00
5:53 pm 17:53 Clear 55 12.8 11 -11.7 17 17 NNW 3 6 30.28 1025 10 16 0.00 0.00
6:53 pm 18:53 Clear 52 11.1 11 -11.7 19 19 NNE 8 13 30.30 1026 10 16 0.00 0.00
7:53 pm 19:53 Clear 51 10.6 13 -10.6 22 22 NNE 3 6 30.31 1026 10 16 0.00 0.00
8:53 pm 20:53 Clear 47 8.3 14 -10 26 26 WNW 3 6 30.32 1027 10 16 0.00 0.00
9:53 pm 21:53 Clear 43 6.1 13 -10.6 29 29 NW 6 9 30.34 1027 10 16 0.00 0.00
10:53 pm 22:53 Clear 44 6.7 15 -9.4 31 31 W 5 7 30.34 1027 10 16 0.00 0.00
11:53 pm 23:53 Clear 42 5.6 16 -8.9 35 35 WNW 6 9 30.35 1028 10 16 0.00 0.00

Powered by AerisWeather